CW8306 Weather Reports


Display with metric or nautical units.
time (UTC)temp
F
wind
direction
speed
MPH
gust
MPH
rain 1hr
in
rain 24hr
in
rain mn
in
humidity
%
barometer
mb
20260903145637 68 124 2.0 3.0 0.00 0.00 0.00 81 1013.4
20260903145133 68 127 0.0 2.0 0.00 0.00 0.00 81 1013.1
20260903144632 68 244 2.0 2.0 0.00 0.00 0.00 81 1013.2
20260903144128 67 212 0.0 5.0 0.00 0.00 0.00 82 1013.8
20260903143624 67 221 0.0 2.0 0.00 0.00 0.00 82 1013.7
20260903143120 67 191 0.0 2.0 0.00 0.00 0.00 83 1013.9
20260903142615 66 173 1.0 2.0 0.00 0.00 0.00 83 1013.7
20260903142112 66 49 0.0 3.0 0.00 0.00 0.00 84 1013.8
20260903141607 65 203 0.0 2.0 0.00 0.00 0.00 84 1013.7
20260903141102 65 209 1.0 3.0 0.00 0.00 0.00 84 1013.9
20260903140558 65 186 1.0 2.0 0.00 0.00 0.00 85 1013.9
20260903140053 65 201 2.0 3.0 0.00 0.00 0.00 85 1014.0
20260903135548 64 193 0.0 0.0 0.00 0.00 0.00 86 1013.8
20260903135043 64 216 0.0 1.0 0.00 0.00 0.00 86 1013.9
20260903134543 64 127 0.0 1.0 0.00 0.00 0.00 86 1013.8
20260903134038 63 201 1.0 2.0 0.00 0.00 0.00 86 1013.9
20260903133536 63 140 1.0 2.0 0.00 0.00 0.00 87 1014.0
20260903133031 62 212 0.0 2.0 0.00 0.00 0.00 87 1014.2
20260903132532 62 196 1.0 3.0 0.00 0.00 0.00 87 1014.0
20260903132027 62 219 0.0 1.0 0.00 0.00 0.00 88 1014.0
20260903131522 61 206 1.0 2.0 0.00 0.00 0.00 88 1013.9
20260903131020 61 214 0.0 1.0 0.00 0.00 0.00 89 1013.9
20260903130516 60 98 2.0 5.0 0.00 0.00 0.00 89 1014.1
20260903130015 60 173 2.0 2.0 0.00 0.00 0.00 89 1014.1
20260903125513 60 206 0.0 0.0 0.00 0.00 0.00 90 1014.3
20260903125009 60 309 1.0 1.0 0.00 0.00 0.00 90 1014.1
20260903124503 59 184 0.0 1.0 0.00 0.00 0.00 90 1014.5
20260903124002 59 183 0.0 1.0 0.00 0.00 0.00 90 1014.3
20260903123457 59 162 0.0 1.0 0.00 0.00 0.00 91 1014.3
20260903122955 59 200 1.0 1.0 0.00 0.00 0.00 91 1014.2
20260903122450 59 157 1.0 3.0 0.00 0.00 0.00 91 1014.4
20260903121950 59 193 0.0 0.0 0.00 0.00 0.00 91 1014.4
20260903121444 59 181 0.0 1.0 0.00 0.00 0.00 91 1014.2
20260903120941 59 111 1.0 2.0 0.00 0.00 0.00 91 1013.7
20260903120439 59 68 1.0 1.0 0.00 0.00 0.00 91 1013.8
20260903115938 59 227 0.0 1.0 0.00 0.00 0.00 91 1013.7
20260903115437 59 179 1.0 3.0 0.00 0.00 0.00 91 1013.8
20260903114933 59 211 0.0 1.0 0.00 0.00 0.00 91 1013.6
20260903114428 59 214 0.0 0.0 0.00 0.00 0.00 91 1013.7
20260903113923 59 193 0.0 1.0 0.00 0.00 0.00 90 1013.7
20260903113419 59 219 0.0 1.0 0.00 0.00 0.00 90 1013.7
20260903112914 59 189 0.0 0.0 0.00 0.00 0.00 90 1013.6
20260903112410 59 203 0.0 1.0 0.00 0.00 0.00 90 1013.8
20260903111909 59 226 0.0 0.0 0.00 0.00 0.00 90 1013.8
20260903111409 59 201 0.0 3.0 0.00 0.00 0.00 90 1013.8
20260903110905 60 213 0.0 0.0 0.00 0.00 0.00 90 1013.9
20260903110400 59 214 0.0 2.0 0.00 0.00 0.00 90 1014.0
20260903105855 59 201 0.0 1.0 0.00 0.00 0.00 90 1014.1
20260903105351 60 192 0.0 1.0 0.00 0.00 0.00 90 1014.0
20260903104850 60 210 0.0 0.0 0.00 0.00 0.00 90 1014.2
20260903104345 60 353 1.0 1.0 0.00 0.00 0.00 90 1014.1
20260903103842 60 179 0.0 1.0 0.00 0.00 0.00 90 1014.2
20260903103338 60 193 0.0 1.0 0.00 0.00 0.00 90 1014.2
20260903102833 60 177 1.0 1.0 0.00 0.00 0.00 90 1014.1
20260903102332 60 128 0.0 1.0 0.00 0.00 0.00 90 1014.4
20260903101827 60 146 0.0 2.0 0.00 0.00 0.00 90 1014.3
20260903101322 60 208 0.0 0.0 0.00 0.00 0.00 90 1014.2
20260903100818 60 202 0.0 1.0 0.00 0.00 0.00 90 1014.4
20260903100317 60 209 0.0 0.0 0.00 0.00 0.00 90 1014.3
20260903095815 60 208 0.0 0.0 0.00 0.00 0.00 90 1014.5
20260903095309 60 214 0.0 0.0 0.00 0.00 0.00 90 1014.4
20260903094804 60 197 0.0 1.0 0.00 0.00 0.00 90 1014.4
20260903094259 60 210 0.0 2.0 0.00 0.00 0.00 90 1014.4
20260903093755 60 195 0.0 2.0 0.00 0.00 0.00 90 1014.3
20260903093250 60 180 0.0 0.0 0.00 0.00 0.00 89 1014.4
20260903092744 60 219 0.0 0.0 0.00 0.00 0.00 89 1014.3
20260903092239 60 206 0.0 1.0 0.00 0.00 0.00 89 1014.4
20260903091738 60 347 0.0 0.0 0.00 0.00 0.00 89 1014.2
20260903091232 61 181 0.0 0.0 0.00 0.00 0.00 89 1014.3
20260903090727 61 139 2.0 3.0 0.00 0.00 0.00 89 1014.2
20260903090226 61 195 0.0 1.0 0.00 0.00 0.00 88 1014.1
20260903085720 61 200 0.0 1.0 0.00 0.00 0.00 88 1014.2
20260903085215 61 182 0.0 1.0 0.00 0.00 0.00 88 1014.1
20260903084713 61 213 0.0 2.0 0.00 0.00 0.00 88 1013.9
20260903084208 61 116 0.0 1.0 0.00 0.00 0.00 88 1014.0
20260903083704 61 185 0.0 1.0 0.00 0.00 0.00 89 1013.9
20260903083203 61 205 0.0 0.0 0.00 0.00 0.00 89 1013.9
20260903082657 61 199 0.0 1.0 0.00 0.00 0.00 89 1014.0
20260903082154 61 200 0.0 1.0 0.00 0.00 0.00 89 1013.8
20260903081648 61 195 0.0 2.0 0.00 0.00 0.00 89 1013.9
20260903081144 61 206 0.0 0.0 0.00 0.00 0.00 89 1014.1
20260903080640 61 202 0.0 0.0 0.00 0.00 0.00 88 1013.9
20260903080137 61 213 0.0 1.0 0.00 0.00 0.00 88 1014.2
20260903075631 62 183 0.0 0.0 0.00 0.00 0.00 88 1014.2
20260903075126 62 219 0.0 0.0 0.00 0.00 0.00 88 1014.4
20260903074625 62 214 0.0 0.0 0.00 0.00 0.00 88 1014.3
20260903074120 62 212 0.0 0.0 0.00 0.00 0.00 88 1014.4
20260903073616 62 208 0.0 2.0 0.00 0.00 0.00 88 1014.2
20260903073111 62 199 0.0 0.0 0.00 0.00 0.00 88 1014.1
20260903072606 62 204 0.0 1.0 0.00 0.00 0.00 88 1014.1
20260903072057 62 208 0.0 0.0 0.00 0.00 0.00 88 1014.3
20260903071553 62 208 0.0 0.0 0.00 0.00 0.00 88 1014.5
20260903071048 62 197 0.0 1.0 0.00 0.00 0.00 87 1014.1
20260903070548 62 202 0.0 0.0 0.00 0.00 0.00 87 1014.5
20260903070044 62 215 2.0 2.0 0.00 0.00 0.00 87 1014.2
20260903065543 63 209 0.0 0.0 0.00 0.00 0.00 87 1014.6
20260903065042 63 190 1.0 1.0 0.00 0.00 0.00 87 1014.4
20260903064537 63 200 0.0 0.0 0.00 0.00 0.00 87 1014.3
20260903064032 63 178 1.0 3.0 0.00 0.00 0.00 87 1014.4
20260903063527 63 204 0.0 2.0 0.00 0.00 0.00 86 1014.3
20260903063023 63 179 0.0 2.0 0.00 0.00 0.00 86 1014.4
20260903062518 64 188 0.0 0.0 0.00 0.00 0.00 86 1014.2
20260903062014 64 212 0.0 0.0 0.00 0.00 0.00 85 1014.4
20260903061509 64 202 0.0 0.0 0.00 0.00 0.00 85 1014.5
20260903061003 64 194 0.0 1.0 0.00 0.00 0.00 85 1014.7
20260903060458 64 208 0.0 1.0 0.00 0.00 0.00 84 1014.4
20260903055957 64 216 0.0 1.0 0.00 0.00 0.00 84 1014.7
20260903055454 64 195 1.0 1.0 0.00 0.00 0.00 84 1014.4
20260903054949 65 194 0.0 1.0 0.00 0.00 0.00 84 1014.4
20260903054449 65 209 0.0 0.0 0.00 0.00 0.00 84 1014.5
20260903053945 65 208 0.0 0.0 0.00 0.00 0.00 84 1014.7
20260903053445 65 212 0.0 1.0 0.00 0.00 0.00 83 1014.8
20260903052942 65 213 0.0 1.0 0.00 0.00 0.00 83 1014.6
20260903052437 65 198 1.0 2.0 0.00 0.00 0.00 83 1014.7
20260903051933 65 198 0.0 2.0 0.00 0.00 0.00 84 1014.6
20260903051428 65 202 0.0 2.0 0.00 0.00 0.00 84 1014.5
20260903050924 65 197 0.0 2.0 0.00 0.00 0.00 84 1014.5
20260903050422 65 187 0.0 0.0 0.00 0.00 0.00 83 1014.7
20260903045917 66 206 0.0 0.0 0.00 0.00 0.00 83 1014.7
20260903045412 66 181 0.0 2.0 0.00 0.00 0.00 83 1014.5
20260903044909 66 202 0.0 1.0 0.00 0.00 0.00 83 1014.5
20260903044409 66 208 0.0 0.0 0.00 0.00 0.00 83 1014.6
20260903043906 66 207 0.0 0.0 0.00 0.00 0.00 83 1014.7
20260903043401 66 211 0.0 1.0 0.00 0.00 0.00 83 1014.6
20260903042859 66 292 0.0 1.0 0.00 0.00 0.00 83 1014.7
20260903042354 66 212 0.0 0.0 0.00 0.00 0.00 83 1014.7
20260903041850 66 213 0.0 1.0 0.00 0.00 0.00 83 1014.7
20260903041347 66 216 0.0 0.0 0.00 0.00 0.00 82 1014.9
20260903040842 66 207 0.0 1.0 0.00 0.00 0.00 82 1014.8
20260903040341 66 185 1.0 1.0 0.00 0.00 0.00 82 1014.5
20260903035837 67 206 0.0 1.0 0.00 0.00 0.00 81 1014.8
20260903035332 67 208 0.0 1.0 0.00 0.00 0.00 81 1014.6
20260903034827 67 206 0.0 1.0 0.00 0.00 0.00 80 1014.7
20260903034323 67 127 2.0 3.0 0.00 0.00 0.00 80 1014.8
20260903033818 67 196 0.0 2.0 0.00 0.00 0.00 80 1014.6
20260903033313 67 214 0.0 1.0 0.00 0.00 0.00 80 1014.8
20260903032807 67 183 0.0 0.0 0.00 0.00 0.00 80 1014.8
20260903032305 67 196 0.0 0.0 0.00 0.00 0.00 80 1014.9
20260903031758 67 200 0.0 1.0 0.00 0.00 0.00 81 1014.7
20260903031257 67 197 0.0 1.0 0.00 0.00 0.00 81 1014.8
20260903030754 67 198 0.0 0.0 0.00 0.00 0.00 81 1014.8
20260903030249 67 203 0.0 0.0 0.00 0.00 0.00 81 1014.9
20260903025744 67 213 0.0 0.0 0.00 0.00 0.00 81 1014.9
20260903025240 67 210 0.0 0.0 0.00 0.00 0.00 80 1014.7
20260903024735 67 204 0.0 0.0 0.00 0.00 0.00 80 1014.8
20260903024234 68 211 0.0 0.0 0.00 0.00 0.00 79 1014.7
20260903023730 68 197 0.0 0.0 0.00 0.00 0.00 78 1014.5
20260903023225 68 173 0.0 0.0 0.00 0.00 0.00 78 1014.7
20260903022725 68 210 0.0 1.0 0.00 0.00 0.00 78 1014.4
20260903022224 69 219 0.0 1.0 0.00 0.00 0.00 77 1014.6
20260903021719 69 208 0.0 3.0 0.00 0.00 0.00 77 1014.5
20260903021214 69 333 0.0 1.0 0.00 0.00 0.00 76 1014.5
20260903020714 69 248 1.0 2.0 0.00 0.00 0.00 75 1014.5
20260903020209 69 189 1.0 1.0 0.00 0.00 0.00 75 1014.5
20260903015704 69 206 0.0 0.0 0.00 0.00 0.00 74 1014.4
20260903015159 70 219 0.0 1.0 0.00 0.00 0.00 73 1014.5
20260903014654 69 219 0.0 0.0 0.00 0.00 0.00 74 1014.4
20260903014154 69 210 0.0 0.0 0.00 0.00 0.00 74 1014.5
20260903013649 70 212 0.0 0.0 0.00 0.00 0.00 73 1014.4
20260903013148 70 208 0.0 0.0 0.00 0.00 0.00 73 1014.2
20260903012647 70 213 0.0 0.0 0.00 0.00 0.00 73 1014.4
20260903012147 70 211 0.0 0.0 0.00 0.00 0.00 72 1014.0
20260903011647 71 211 0.0 0.0 0.00 0.00 0.00 72 1014.3
20260903011146 71 212 0.0 0.0 0.00 0.00 0.00 72 1014.2
20260903010642 72 213 0.0 0.0 0.00 0.00 0.00 71 1014.4
20260903010140 72 210 0.0 0.0 0.00 0.00 0.00 70 1014.3
20260903005635 73 213 0.0 0.0 0.00 0.00 0.00 68 1014.4
20260903005130 73 223 0.0 1.0 0.00 0.00 0.00 68 1014.3
20260903004625 73 217 0.0 0.0 0.00 0.00 0.00 67 1014.2
20260903004120 74 211 0.0 0.0 0.00 0.00 0.00 66 1014.3
20260903003616 74 210 0.0 0.0 0.00 0.00 0.00 66 1014.4
20260903003111 74 174 0.0 1.0 0.00 0.00 0.00 65 1014.4
20260903002606 74 214 0.0 0.0 0.00 0.00 0.00 67 1014.1
20260903002106 74 101 1.0 1.0 0.00 0.00 0.00 66 1014.4
20260903001601 75 208 0.0 0.0 0.00 0.00 0.00 66 1014.4
20260903001055 75 209 0.0 0.0 0.00 0.00 0.00 65 1014.2
20260903000550 75 210 0.0 1.0 0.00 0.00 0.00 63 1014.3
20260903000044 76 215 0.0 0.0 0.00 0.00 0.00 63 1014.3
20260902235543 77 87 0.0 1.0 0.00 0.00 0.00 61 1014.3
20260902235039 78 205 0.0 0.0 0.00 0.00 0.00 60 1014.1
20260902234538 78 192 1.0 1.0 0.00 0.00 0.00 59 1014.4
20260902234037 78 206 0.0 1.0 0.00 0.00 0.00 60 1014.5
20260902233532 79 216 0.0 1.0 0.00 0.00 0.00 60 1014.2
20260902233027 78 210 0.0 1.0 0.00 0.00 0.00 60 1014.2
20260902232526 78 198 0.0 1.0 0.00 0.00 0.00 60 1014.3
20260902232026 79 202 0.0 1.0 0.00 0.00 0.00 60 1014.2
20260902231521 79 124 0.0 2.0 0.00 0.00 0.00 58 1014.2
20260902231015 78 218 1.0 1.0 0.00 0.00 0.00 57 1014.1
20260902230515 78 192 1.0 2.0 0.00 0.00 0.00 58 1014.1
20260902230009 78 177 2.0 2.0 0.00 0.00 0.00 58 1014.1
20260902225504 77 180 1.0 2.0 0.00 0.00 0.00 59 1014.3
20260902225004 76 214 0.0 1.0 0.00 0.00 0.00 61 1014.1
20260902224502 76 196 2.0 2.0 0.00 0.00 0.00 62 1014.2
20260902223954 76 203 0.0 0.0 0.00 0.00 0.00 63 1014.3
20260902223448 76 208 0.0 0.0 0.00 0.00 0.00 63 1014.1
20260902222948 76 190 0.0 1.0 0.00 0.00 0.00 63 1014.4
20260902222441 76 190 0.0 1.0 0.00 0.00 0.00 63 1014.2
20260902221941 76 197 0.0 2.0 0.00 0.00 0.00 63 1014.5
20260902221439 76 201 1.0 2.0 0.00 0.00 0.00 63 1014.0
20260902220936 77 200 0.0 0.0 0.00 0.00 0.00 63 1014.2
20260902220435 77 191 1.0 2.0 0.00 0.00 0.00 62 1014.2
20260902215930 78 209 0.0 2.0 0.00 0.00 0.00 60 1014.2
20260902215426 78 119 2.0 2.0 0.00 0.00 0.00 60 1014.2
20260902214922 77 352 1.0 3.0 0.00 0.00 0.00 61 1014.4
20260902214420 76 191 1.0 1.0 0.00 0.00 0.00 62 1014.4
20260902213915 76 209 0.0 1.0 0.00 0.00 0.00 63 1014.1
20260902213412 76 206 0.0 1.0 0.00 0.00 0.00 63 1014.3
20260902212910 76 162 0.0 1.0 0.00 0.00 0.00 63 1014.5
20260902212406 76 211 0.0 1.0 0.00 0.00 0.00 63 1014.5
20260902211902 76 175 2.0 2.0 0.00 0.00 0.00 63 1014.3
20260902211358 77 220 0.0 1.0 0.00 0.00 0.00 64 1014.2
20260902210853 77 214 0.0 0.0 0.00 0.00 0.00 63 1014.4
20260902210352 77 215 0.0 0.0 0.00 0.00 0.00 63 1014.5
20260902205851 77 207 1.0 1.0 0.00 0.00 0.00 63 1014.6
20260902205346 77 215 0.0 0.0 0.00 0.00 0.00 63 1014.5
20260902204842 76 209 0.0 1.0 0.00 0.00 0.00 63 1014.6
20260902204336 76 204 1.0 1.0 0.00 0.00 0.00 63 1014.4
20260902203832 76 181 2.0 2.0 0.00 0.00 0.00 63 1014.5
20260902203327 77 208 0.0 1.0 0.00 0.00 0.00 63 1014.5
20260902202826 77 252 1.0 2.0 0.00 0.00 0.00 63 1014.6
20260902202322 77 234 1.0 3.0 0.00 0.00 0.00 62 1014.7
20260902201818 76 75 1.0 3.0 0.00 0.00 0.00 63 1014.7
20260902201313 75 28 3.0 5.0 0.00 0.00 0.00 64 1015.0
20260902200808 76 46 2.0 3.0 0.00 0.00 0.00 63 1014.9
20260902200303 76 214 0.0 2.0 0.00 0.00 0.00 63 1014.9
20260902195758 76 210 1.0 2.0 0.00 0.00 0.00 64 1014.8
20260902195257 76 217 0.0 1.0 0.00 0.00 0.00 63 1014.9
20260902194752 76 253 1.0 1.0 0.00 0.00 0.00 64 1014.9
20260902194247 75 218 0.0 2.0 0.00 0.00 0.00 65 1015.0
20260902193743 75 215 0.0 1.0 0.00 0.00 0.00 65 1014.9
20260902193238 75 197 0.0 2.0 0.00 0.00 0.00 65 1015.1
20260902192736 77 211 1.0 2.0 0.00 0.00 0.00 63 1015.1
20260902192236 77 339 3.0 5.0 0.00 0.00 0.00 62 1015.1
20260902191730 76 220 0.0 1.0 0.00 0.00 0.00 62 1014.9
20260902191225 76 213 0.0 0.0 0.00 0.00 0.00 64 1015.2
20260902190721 75 124 1.0 2.0 0.00 0.00 0.00 64 1015.1
20260902190220 75 202 0.0 0.0 0.00 0.00 0.00 67 1015.5
20260902185716 75 201 0.0 1.0 0.00 0.00 0.00 67 1015.1
20260902185212 75 208 0.0 2.0 0.00 0.00 0.00 66 1015.3
20260902184707 75 224 0.0 0.0 0.00 0.00 0.00 66 1015.2
20260902184202 76 219 0.0 2.0 0.00 0.00 0.00 65 1015.5
20260902183658 76 219 0.0 2.0 0.00 0.00 0.00 65 1015.3
20260902183154 77 206 0.0 1.0 0.00 0.00 0.00 63 1015.3
20260902182650 76 19 3.0 6.0 0.00 0.00 0.00 63 1015.2
20260902182147 76 294 1.0 1.0 0.00 0.00 0.00 63 1015.4
20260902181642 76 179 1.0 1.0 0.00 0.00 0.00 65 1015.3
20260902181142 75 201 0.0 0.0 0.00 0.00 0.00 66 1015.5
20260902180642 74 284 0.0 2.0 0.00 0.00 0.00 66 1015.4
20260902180138 73 214 0.0 0.0 0.00 0.00 0.00 68 1015.6
20260902175637 73 214 0.0 1.0 0.00 0.00 0.00 68 1015.8
20260902175133 73 220 0.0 0.0 0.00 0.00 0.00 68 1015.6
20260902174629 73 208 0.0 0.0 0.00 0.00 0.00 68 1015.7
20260902174125 74 214 0.0 0.0 0.00 0.00 0.00 69 1015.8
20260902173620 74 181 1.0 2.0 0.00 0.00 0.00 68 1015.6
20260902173115 74 56 1.0 2.0 0.00 0.00 0.00 69 1015.7
20260902172609 74 226 0.0 3.0 0.00 0.00 0.00 68 1015.9
20260902172103 75 14 2.0 5.0 0.00 0.00 0.00 69 1015.8
20260902171559 74 208 1.0 1.0 0.00 0.00 0.00 68 1015.8
20260902171055 74 198 0.0 1.0 0.00 0.00 0.00 70 1015.8
20260902170550 73 202 1.0 2.0 0.00 0.00 0.00 70 1015.9
20260902170045 73 215 0.0 2.0 0.00 0.00 0.00 70 1015.8
20260902165539 75 197 0.0 1.0 0.00 0.00 0.00 68 1015.8
20260902165034 74 188 1.0 2.0 0.00 0.00 0.00 71 1015.8
20260902164529 72 211 0.0 0.0 0.00 0.00 0.00 73 1015.8
20260902164028 72 218 0.0 0.0 0.00 0.00 0.00 73 1015.7
20260902163524 73 216 0.0 1.0 0.00 0.00 0.00 72 1016.2
20260902163022 74 200 0.0 1.0 0.00 0.00 0.00 71 1016.2
20260902162522 73 215 0.0 1.0 0.00 0.00 0.00 72 1016.2
20260902162017 72 190 0.0 2.0 0.00 0.00 0.00 73 1016.2
20260902161512 71 110 2.0 3.0 0.00 0.00 0.00 75 1015.9
20260902161008 71 273 0.0 1.0 0.00 0.00 0.00 75 1016.1
20260902160504 71 111 2.0 3.0 0.00 0.00 0.00 76 1015.7
20260902160003 70 214 0.0 1.0 0.00 0.00 0.00 77 1015.6
20260902155456 69 248 1.0 2.0 0.00 0.00 0.00 77 1015.9
20260902154950 69 216 0.0 1.0 0.00 0.00 0.00 78 1015.9
20260902154445 69 53 1.0 2.0 0.00 0.00 0.00 79 1015.8
20260902153946 68 163 1.0 1.0 0.00 0.00 0.00 79 1015.9
20260902153444 68 85 1.0 2.0 0.00 0.00 0.00 80 1015.9
20260902152939 68 262 1.0 1.0 0.00 0.00 0.00 80 1015.8
20260902152430 68 214 0.0 1.0 0.00 0.00 0.00 80 1015.8
20260902151925 67 209 0.0 1.0 0.00 0.00 0.00 81 1015.7
20260902151421 67 27 1.0 2.0 0.00 0.00 0.00 81 1015.7
20260902150915 66 210 0.0 1.0 0.00 0.00 0.00 82 1015.8
20260902150411 66 212 0.0 0.0 0.00 0.00 0.00 83 1015.9
20260902145910 66 197 0.0 0.0 0.00 0.00 0.00 83 1015.6